Hourly Weather Roundup
Issued by NWS Central Illinois

Home | Current Version | Previous Version | Text Only | Print | Product List | Glossary On
Versions: 1 2 3 4 5 6 7 8 9 10 11 12 13 14 15 16 17 18 19 20 21 22 23 24 25 26 27 28 29 30 31 32 33 34 35 36 37 38 39 40 41 42 43 44 45 46 47 48 49 50
000
NZUS43 KILX 021910
HWRILX

AREA WEATHER ROUNDUP
NATIONAL WEATHER SERVICE, LINCOLN IL
200 PM CDT THU JUL 02 2015


CITY           SKY/WX    TMP DP  RH WIND       PRES   REMARKS
BLOOMINGTON    PTSUNNY   75  60  59 E17       29.95F
CHAMPAIGN      MOSUNNY   74  60  61 NE9       29.92F
DANVILLE       MOSUNNY   74  63  67 NE9       29.90
DECATUR        PTSUNNY   73  59  61 NE7       29.93S
EFFINGHAM      CLOUDY    74  62  65 N6        29.91
FLORA          CLOUDY    70  64  83 N7        29.89
GALESBURG      PTSUNNY   68  57  67 NE12      29.97
JACKSONVILLE   CLOUDY    71  61  71 NE9       29.94
LACON          MOSUNNY   71  58  63 NE6       29.96
LAWRENCEVILLE  LGT RAIN  73  67  81 N6        29.88F
LITCHFIELD     PTSUNNY   74  62  65 N7        29.92
$$


CITY           SKY/WX    TMP DP  RH WIND       PRES   REMARKS
LINCOLN        CLOUDY    73  60  62 NE6       29.95
MACOMB         CLOUDY    68  60  74 E10       29.99
MATTOON        PTSUNNY   74  64  71 N8        29.89F
MT CARMEL AP   LGT RAIN  73  68  83 N5        29.87
OLNEY-NOBLE AP CLOUDY    68  66  94 N3        29.90
PARIS          MOSUNNY   75  65  71 N6        29.91
PEORIA         PTSUNNY   74  58  57 E10G21    29.96S
PONTIAC        PTSUNNY   74  61  62 NE13      29.95
RANTOUL        MOSUNNY   75  59  57 NE10      29.92
ROBINSON       PTSUNNY   73  65  77 N8        29.89
SPRINGFIELD    CLOUDY    73  60  63 N12       29.95R
TAYLORVILLE    CLOUDY    72  61  68 N9        29.93
$$

...REGIONAL REPORTS...


CITY           SKY/WX    TMP DP  RH WIND       PRES   REMARKS
CHICAGO O`HARE PTSUNNY   67  53  61 NE13      30.00S
KANKAKEE       PTSUNNY   73  58  58 E12       29.96
MOLINE         MOSUNNY   72  54  53 E15       29.98F
MOUNT STERLING NOT AVBL
MOUNT VERNON   CLOUDY    66  63  88 N6        29.89S
PITTSFIELD     CLOUDY    72  60  66 NE6       29.95S
QUINCY         CLOUDY    71  58  63 NE9       29.94F
ROCKFORD       CLOUDY    71  54  54 NE15      30.01F
$$


CITY           SKY/WX    TMP DP  RH WIND       PRES   REMARKS
BURLINGTON     PTSUNNY   72  58  61 E12       29.96F
CEDAR RAPIDS   PTSUNNY   69  52  54 E13       29.98F
DES MOINES     CLOUDY    69  50  50 E8        29.99S
KIRKSVILLE     CLOUDY    73  59  61 NE10      29.96S
OTTUMWA        CLOUDY    70  50  49 E13       29.96F
ST LOUIS       PTSUNNY   76  63  64 NE7       29.91F
$$


CITY           SKY/WX    TMP DP  RH WIND       PRES   REMARKS
TERRE HAUTE    CLOUDY    77  65  66 CALM      29.89S
EVANSVILLE     CLOUDY    79  69  71 SE3       29.86F HX  81
INDIANAPOLIS   PTSUNNY   78  63  59 NE12      29.87F HX  80
LAFAYETTE      MOSUNNY   75  63  66 NE8       29.92S
MADISON        MOSUNNY   69  47  45 E5        30.02F
MILWAUKEE      MOSUNNY   64  51  62 NE13      30.04F
$$





USA.gov is the U.S. government's official web portal to all federal, state and local government web resources and services.